| time (UTC) | temp C | wind direction | speed KPH | gust KPH | rain 1hr cm | rain 24hr cm | rain mn cm | humidity % | barometer mb |
| 20260906111521 | 21 | 0.0 | 0.0 | 0.00 | 0.51 | 0.00 | 99 | 989.2 | |
| 20260906110527 | 21 | 0.0 | 0.0 | 0.00 | 0.51 | 0.00 | 99 | 989.0 | |
| 20260906105532 | 21 | 77 | 3.2 | 4.8 | 0.00 | 0.51 | 0.00 | 99 | 989.1 |
| 20260906104520 | 21 | 77 | 3.2 | 4.8 | 0.00 | 0.51 | 0.00 | 99 | 988.9 |
| 20260906103525 | 21 | 86 | 3.2 | 4.8 | 0.00 | 0.51 | 0.00 | 99 | 988.7 |
| 20260906102531 | 21 | 90 | 0.0 | 3.2 | 0.00 | 0.51 | 0.00 | 99 | 988.5 |
| 20260906101518 | 20 | 0.0 | 0.0 | 0.00 | 0.51 | 0.00 | 99 | 988.3 | |
| 20260906100544 | 20 | 0.0 | 0.0 | 0.00 | 0.51 | 0.00 | 98 | 988.3 | |
| 20260906095529 | 20 | 0.0 | 0.0 | 0.00 | 0.51 | 0.00 | 98 | 988.2 | |
| 20260906094517 | 20 | 0.0 | 0.0 | 0.00 | 0.51 | 0.00 | 98 | 988.0 | |
| 20260906093522 | 20 | 0.0 | 0.0 | 0.00 | 0.51 | 0.00 | 98 | 988.0 | |
| 20260906092549 | 20 | 0.0 | 0.0 | 0.00 | 0.51 | 0.00 | 97 | 987.8 | |
| 20260906091515 | 20 | 0.0 | 0.0 | 0.00 | 0.51 | 0.00 | 97 | 987.8 | |
| 20260906090521 | 20 | 0.0 | 0.0 | 0.00 | 0.51 | 0.00 | 97 | 987.8 | |
| 20260906085526 | 20 | 0.0 | 0.0 | 0.00 | 0.51 | 0.00 | 97 | 987.6 | |
| 20260906084532 | 20 | 0.0 | 0.0 | 0.00 | 0.51 | 0.00 | 97 | 987.6 | |
| 20260906083519 | 20 | 0.0 | 0.0 | 0.00 | 0.51 | 0.00 | 97 | 987.4 | |
| 20260906082525 | 20 | 0.0 | 0.0 | 0.00 | 0.51 | 0.00 | 97 | 987.3 | |
| 20260906081530 | 20 | 0.0 | 0.0 | 0.00 | 0.51 | 0.00 | 97 | 987.2 | |
| 20260906080518 | 20 | 0.0 | 0.0 | 0.00 | 0.51 | 0.00 | 97 | 987.2 | |
| 20260906075543 | 20 | 0.0 | 0.0 | 0.00 | 0.51 | 0.00 | 97 | 987.2 | |
| 20260906074529 | 20 | 0.0 | 0.0 | 0.00 | 0.51 | 0.00 | 97 | 987.3 | |
| 20260906073516 | 20 | 0.0 | 0.0 | 0.00 | 0.51 | 0.00 | 97 | 987.2 | |
| 20260906072522 | 20 | 0.0 | 0.0 | 0.00 | 0.51 | 0.00 | 97 | 987.4 | |
| 20260906071527 | 21 | 0.0 | 0.0 | 0.00 | 0.51 | 0.00 | 97 | 987.4 | |
| 20260906070535 | 21 | 0.0 | 0.0 | 0.00 | 0.51 | 0.00 | 97 | 987.5 | |
| 20260906065520 | 21 | 0.0 | 0.0 | 0.00 | 0.51 | 0.00 | 97 | 987.5 | |
| 20260906064526 | 21 | 0.0 | 0.0 | 0.00 | 0.51 | 0.00 | 97 | 987.7 | |
| 20260906063531 | 21 | 0.0 | 0.0 | 0.00 | 0.51 | 0.00 | 97 | 987.7 | |
| 20260906062519 | 21 | 0.0 | 0.0 | 0.00 | 0.51 | 0.00 | 97 | 987.9 | |
| 20260906061525 | 21 | 0.0 | 0.0 | 0.00 | 0.51 | 0.00 | 97 | 987.9 | |
| 20260906060530 | 21 | 0.0 | 0.0 | 0.00 | 0.51 | 0.00 | 97 | 987.9 | |
| 20260906030016 | 22 | 0.0 | 0.0 | 0.00 | 0.51 | 0.51 | 96 | 988.4 | |
| 20260906025021 | 22 | 0.0 | 0.0 | 0.00 | 0.51 | 0.51 | 96 | 988.4 | |
| 20260906024027 | 22 | 0.0 | 0.0 | 0.00 | 0.51 | 0.51 | 96 | 988.4 | |
| 20260906023026 | 22 | 0.0 | 0.0 | 0.00 | 0.51 | 0.51 | 96 | 988.4 | |
| 20260906022021 | 22 | 0.0 | 0.0 | 0.00 | 0.51 | 0.51 | 96 | 988.4 | |
| 20260906021025 | 22 | 0.0 | 0.0 | 0.00 | 0.51 | 0.51 | 96 | 988.1 | |
| 20260906020025 | 22 | 270 | 0.0 | 3.2 | 0.00 | 0.51 | 0.51 | 96 | 988.0 |
| 20260906015018 | 22 | 0.0 | 0.0 | 0.00 | 0.51 | 0.51 | 96 | 988.0 | |
| 20260906014044 | 22 | 0.0 | 0.0 | 0.00 | 0.51 | 0.51 | 96 | 988.0 | |
| 20260906013023 | 22 | 0.0 | 0.0 | 0.00 | 0.51 | 0.51 | 96 | 987.9 | |
| 20260906012017 | 22 | 0.0 | 0.0 | 0.00 | 0.51 | 0.51 | 95 | 988.0 | |
| 20260906011022 | 22 | 0.0 | 0.0 | 0.00 | 0.51 | 0.51 | 95 | 987.8 | |
| 20260906010022 | 22 | 0.0 | 0.0 | 0.00 | 0.51 | 0.51 | 95 | 987.9 | |
| 20260906005015 | 22 | 0.0 | 0.0 | 0.00 | 0.51 | 0.51 | 95 | 987.9 | |
| 20260906004021 | 22 | 0.0 | 0.0 | 0.00 | 0.51 | 0.51 | 95 | 987.9 | |
| 20260906003020 | 22 | 0.0 | 0.0 | 0.00 | 0.51 | 0.51 | 94 | 987.8 | |
| 20260906002021 | 22 | 0.0 | 0.0 | 0.00 | 0.51 | 0.51 | 93 | 987.7 | |
| 20260906001019 | 23 | 0.0 | 0.0 | 0.00 | 0.51 | 0.51 | 93 | 987.8 | |
| 20260906000019 | 23 | 0.0 | 0.0 | 0.00 | 0.51 | 0.51 | 93 | 987.6 | |
| 20260905235018 | 23 | 0.0 | 0.0 | 0.00 | 0.51 | 0.51 | 93 | 987.5 | |
| 20260905234038 | 24 | 0.0 | 0.0 | 0.00 | 0.51 | 0.51 | 92 | 987.3 | |
| 20260905233017 | 25 | 0.0 | 0.0 | 0.00 | 0.51 | 0.51 | 91 | 987.1 | |
| 20260905232018 | 25 | 0.0 | 0.0 | 0.00 | 0.51 | 0.51 | 90 | 987.1 | |
| 20260905231016 | 25 | 0.0 | 0.0 | 0.00 | 0.51 | 0.51 | 90 | 986.9 | |
| 20260905230016 | 25 | 113 | 3.2 | 6.4 | 0.00 | 0.51 | 0.51 | 90 | 986.8 |
| 20260905225015 | 25 | 92 | 1.6 | 4.8 | 0.00 | 0.51 | 0.51 | 87 | 986.7 |
| 20260905224014 | 26 | 0.0 | 0.0 | 0.00 | 0.51 | 0.51 | 85 | 986.6 | |
| 20260905223020 | 26 | 282 | 1.6 | 4.8 | 0.00 | 0.51 | 0.51 | 84 | 986.6 |
| 20260905222026 | 26 | 0.0 | 0.0 | 0.00 | 0.51 | 0.51 | 85 | 986.9 | |
| 20260905221112 | 25 | 0.0 | 0.0 | 0.00 | 0.51 | 0.51 | 89 | 987.3 | |
| 20260905220019 | 25 | 254 | 1.6 | 4.8 | 0.00 | 0.51 | 0.51 | 89 | 987.4 |
| 20260905215024 | 25 | 243 | 4.8 | 4.8 | 0.00 | 0.51 | 0.51 | 89 | 987.5 |
| 20260905214030 | 25 | 0.0 | 0.0 | 0.00 | 0.51 | 0.51 | 90 | 987.6 | |
| 20260905213017 | 25 | 0.0 | 0.0 | 0.00 | 0.51 | 0.51 | 91 | 987.6 | |
| 20260905212023 | 24 | 0.0 | 0.0 | 0.00 | 0.51 | 0.51 | 90 | 987.8 | |
| 20260905211028 | 24 | 0.0 | 0.0 | 0.00 | 0.51 | 0.51 | 91 | 987.7 | |
| 20260905210016 | 23 | 0.0 | 0.0 | 0.00 | 0.51 | 0.51 | 91 | 988.2 | |
| 20260905205042 | 23 | 0.0 | 0.0 | 0.00 | 0.51 | 0.51 | 90 | 988.1 | |
| 20260905204027 | 22 | 0.0 | 0.0 | 0.00 | 0.51 | 0.51 | 93 | 988.1 | |
| 20260905203032 | 22 | 0.0 | 0.0 | 0.00 | 0.51 | 0.51 | 94 | 988.0 | |
| 20260905202020 | 21 | 0.0 | 0.0 | 0.03 | 0.51 | 0.51 | 94 | 987.7 | |
| 20260905201025 | 21 | 260 | 3.2 | 4.8 | 0.03 | 0.51 | 0.51 | 94 | 987.4 |
| 20260905200031 | 21 | 0.0 | 3.2 | 0.25 | 0.51 | 0.51 | 93 | 987.7 | |
| 20260905195018 | 21 | 72 | 1.6 | 3.2 | 0.51 | 0.51 | 0.51 | 93 | 987.8 |
| 20260905194024 | 21 | 248 | 0.0 | 4.8 | 0.51 | 0.51 | 0.51 | 91 | 987.8 |
| 20260905193029 | 21 | 98 | 4.8 | 9.7 | 0.51 | 0.51 | 0.51 | 90 | 987.9 |
| 20260905192017 | 22 | 96 | 1.6 | 4.8 | 0.48 | 0.48 | 0.48 | 86 | 987.4 |
| 20260905191023 | 22 | 87 | 12.9 | 22.5 | 0.48 | 0.48 | 0.48 | 87 | 988.5 |
| 20260905190028 | 24 | 110 | 14.5 | 24.1 | 0.25 | 0.25 | 0.25 | 83 | 989.1 |
| 20260905185015 | 30 | 284 | 19.3 | 32.2 | 0.00 | 0.00 | 0.00 | 56 | 988.1 |
| 20260905183520 | 36 | 236 | 4.8 | 8.0 | 0.00 | 0.00 | 0.00 | 45 | 986.8 |
| 20260905182519 | 36 | 245 | 6.4 | 11.3 | 0.00 | 0.00 | 0.00 | 42 | 987.1 |
| 20260905181540 | 36 | 194 | 6.4 | 9.7 | 0.00 | 0.00 | 0.00 | 46 | 987.4 |
| 20260905180518 | 35 | 271 | 3.2 | 8.0 | 0.00 | 0.00 | 0.00 | 48 | 987.6 |
| 20260905175517 | 35 | 87 | 4.8 | 8.0 | 0.00 | 0.00 | 0.00 | 47 | 987.6 |
| 20260905174517 | 36 | 207 | 6.4 | 9.7 | 0.00 | 0.00 | 0.00 | 44 | 988.0 |
| 20260905173537 | 37 | 267 | 4.8 | 8.0 | 0.00 | 0.00 | 0.00 | 44 | 988.4 |
| 20260905172516 | 36 | 237 | 6.4 | 9.7 | 0.00 | 0.00 | 0.00 | 45 | 988.5 |
| 20260905171515 | 36 | 259 | 4.8 | 9.7 | 0.00 | 0.00 | 0.00 | 45 | 988.5 |
| 20260905170535 | 36 | 199 | 6.4 | 9.7 | 0.00 | 0.00 | 0.00 | 47 | 988.6 |
| 20260905165515 | 36 | 218 | 4.8 | 9.7 | 0.00 | 0.00 | 0.00 | 48 | 988.7 |
| 20260905164532 | 35 | 250 | 3.2 | 8.0 | 0.00 | 0.00 | 0.00 | 49 | 989.0 |
| 20260905163540 | 36 | 214 | 3.2 | 6.4 | 0.00 | 0.00 | 0.00 | 49 | 989.1 |
| 20260905162526 | 35 | 213 | 9.7 | 12.9 | 0.00 | 0.00 | 0.00 | 50 | 989.2 |
| 20260905161531 | 35 | 212 | 4.8 | 8.0 | 0.00 | 0.00 | 0.00 | 52 | 989.3 |
| 20260905160538 | 35 | 227 | 6.4 | 11.3 | 0.00 | 0.00 | 0.00 | 52 | 989.4 |
| 20260905155544 | 34 | 184 | 4.8 | 8.0 | 0.00 | 0.00 | 0.00 | 55 | 989.5 |
| 20260905154529 | 33 | 197 | 6.4 | 9.7 | 0.00 | 0.00 | 0.00 | 54 | 989.6 |
| 20260905153537 | 33 | 183 | 3.2 | 8.0 | 0.00 | 0.00 | 0.00 | 57 | 989.6 |
| 20260905152543 | 33 | 234 | 3.2 | 8.0 | 0.00 | 0.00 | 0.00 | 56 | 989.7 |
| 20260905151548 | 32 | 205 | 3.2 | 6.4 | 0.00 | 0.00 | 0.00 | 59 | 989.7 |
| 20260905150515 | 32 | 229 | 1.6 | 4.8 | 0.00 | 0.00 | 0.00 | 62 | 989.8 |
| 20260905145521 | 31 | 208 | 6.4 | 11.3 | 0.00 | 0.00 | 0.00 | 63 | 989.8 |
| 20260905144547 | 31 | 237 | 4.8 | 9.7 | 0.00 | 0.00 | 0.00 | 66 | 989.8 |
| 20260905143531 | 30 | 212 | 6.4 | 8.0 | 0.00 | 0.00 | 0.00 | 68 | 989.8 |
| 20260905142519 | 30 | 249 | 4.8 | 6.4 | 0.00 | 0.00 | 0.00 | 69 | 989.8 |
| 20260905141525 | 30 | 220 | 6.4 | 9.7 | 0.00 | 0.00 | 0.00 | 71 | 989.7 |
| 20260905140530 | 29 | 274 | 4.8 | 8.0 | 0.00 | 0.00 | 0.00 | 71 | 989.8 |
| 20260905135518 | 28 | 240 | 3.2 | 6.4 | 0.00 | 0.00 | 0.00 | 73 | 990.0 |
| 20260905134523 | 28 | 209 | 4.8 | 6.4 | 0.00 | 0.00 | 0.00 | 75 | 990.0 |
| 20260905133529 | 27 | 237 | 6.4 | 8.0 | 0.00 | 0.00 | 0.00 | 75 | 990.0 |
| 20260905132516 | 27 | 240 | 3.2 | 6.4 | 0.00 | 0.00 | 0.00 | 77 | 990.1 |
| 20260905131522 | 27 | 284 | 4.8 | 6.4 | 0.00 | 0.00 | 0.00 | 77 | 990.2 |
| 20260905130527 | 27 | 100 | 0.0 | 3.2 | 0.00 | 0.00 | 0.00 | 78 | 990.2 |
| 20260905125515 | 27 | 210 | 3.2 | 4.8 | 0.00 | 0.00 | 0.00 | 77 | 990.3 |
| 20260905124520 | 26 | 0.0 | 0.0 | 0.00 | 0.00 | 0.00 | 81 | 990.2 | |
| 20260905123526 | 25 | 210 | 3.2 | 4.8 | 0.00 | 0.00 | 0.00 | 84 | 990.3 |
| 20260905122531 | 25 | 208 | 4.8 | 6.4 | 0.00 | 0.00 | 0.00 | 86 | 990.2 |
| 20260905121519 | 24 | 0.0 | 0.0 | 0.00 | 0.00 | 0.00 | 89 | 990.2 | |
| 20260905120525 | 23 | 0.0 | 0.0 | 0.00 | 0.00 | 0.00 | 91 | 990.2 | |
| 20260905115530 | 22 | 0.0 | 0.0 | 0.00 | 0.00 | 0.00 | 92 | 990.0 | |
| 20260905114517 | 22 | 0.0 | 0.0 | 0.00 | 0.00 | 0.00 | 93 | 989.8 | |
| 20260905113523 | 22 | 0.0 | 0.0 | 0.00 | 0.00 | 0.00 | 93 | 989.5 | |
| 20260905112528 | 22 | 0.0 | 0.0 | 0.00 | 0.00 | 0.00 | 93 | 989.3 |